{"data":{"norad_id":56163,"intl_designator":"2023-050B","name":"CHECKMATE 5","alt_names":[],"object_type":"PAYLOAD","status":"ACTIVE","operator":null,"country":"US","launch_date":"2023-04-02","launch_site_code":"AFWTR","launch_vehicle":null,"mission":null,"orbit_class":"UNKNOWN","rcs_meters":null,"size_class":null,"mass_kg":null,"dimensions":null,"purposes":[],"wikipedia_slug":null,"has_3d_model":false,"image_url":null,"decayed_at":null,"tle_current":{"epoch":"2026-09-21T22:14:40.374816Z","epoch_age_seconds":64542,"freshness":"FRESH","line1":"1 56163U 23050B   26264.92685619  .00000060  00000+0  43335-4 0  9994","line2":"2 56163  81.0042 338.7628 0007322  65.0312 295.1604 13.84996703175556","mean_motion":13.84996703,"eccentricity":0.0007322,"inclination_deg":81.0042,"raan_deg":338.7628,"arg_perigee_deg":65.0312,"mean_anomaly_deg":295.1604,"bstar":4.3335e-5,"rev_number":17555,"period_min":103.97136663798,"perigee_km":940.85447650066,"apogee_km":951.58026103828,"semimajor_km":7324.3543687695,"source":"CELESTRAK","updated_at":"2026-09-22T09:00:25.729359Z"}}}